QZS-2 (MICHIBIKI-2)

Last updated on Jan. 26, 2020, 4:40 a.m. UTC

1 42738U 17028A   20025.56785572 -.00000170  00000-0  00000+0 0  9994
2 42738  43.2296 276.4271 0753118 269.7799 283.1505  1.00279103  9720
UTC
Height (km)
Latitude
Longitude
Inclination
Orbital Period
UTC large
Height (km)
Speed (km/s)
/
Latitude / Longitude
Inclination (degrees)
Orbital Period (minutes)
Azimuth
Elevation
Range (km)
Doppler Factor
iOS Compass Heading
iOS Angle

Next 30 passes for location: Hong Kong

Rise time Rise Azimuth (degrees) Set time Set Azimuth (degrees) Duration Max altitude (degrees)

No matching passes for this satellites